Location: Ferintosh
(52.7647°N, 112.9692°W)
Time: 23:11:37
(UTC+00:00)

Vanguard 1 Rocket - Pass Details

Date: 22 May 2024
Orbit: 649 x 4221 km, 34.3° (Epoch: 13 June)

Event Time Altitude Azimuth Distance (km) Brightness Sun altitude
Rises 16:09:46 0° 220° (SW) 8,221 12.1 40.2°
Reaches altitude 10° 16:17:11 10° 210° (SSW) 6,808 11.9 41.3°
Maximum altitude 16:32:25 27° 164° (SSE) 4,248 11.7 43.4°
Drops below altitude 10° 16:42:17 10° 113° (ESE) 4,350 11.9 44.7°
Sets 16:45:41 0° 101° (E) 4,905 11.8 45.2°
